Location: Hopkins Observatory
(42.6965°N, 73.1843°W)
Time: 17:11:33
(UTC-04:00)

UOSAT-12 - Visible Passes

Search period start: 30 June 2016 00:00
Search period end: 10 July 2016 00:00
Orbit: 623 x 631 km, 64.6° (Epoch: 29 June)

Date Brightness Start Highest point End Pass type
(mag) Time Alt. Az. Time Alt. Az. Time Alt. Az.
30 Jun 7.8 00:41:11 10° NNW 00:45:37 49° NE 00:46:34 41° E visible
30 Jun 9.0 02:22:03 10° WNW 02:23:50 17° W 02:23:50 17° W visible
30 Jun 9.5 23:21:53 10° N 23:24:53 17° NE 23:27:53 10° E visible
01 Jul 7.0 01:00:59 10° NW 01:05:23 78° W 01:05:23 78° W visible
01 Jul 8.6 23:41:10 10° NNW 23:45:10 29° NE 23:47:01 22° E visible
02 Jul 8.2 01:21:09 10° NW 01:24:16 32° W 01:24:16 32° W visible
02 Jul 9.7 22:22:37 10° NNE 22:24:10 11° NNE 22:25:43 10° NE visible
03 Jul 7.4 00:00:46 10° NNW 00:05:16 57° NE 00:05:57 51° E visible
03 Jul 9.3 01:41:59 10° WNW 01:43:13 14° W 01:43:13 14° W visible
03 Jul 9.2 22:41:20 10° N 22:44:37 19° NE 22:47:42 11° E visible
04 Jul 7.1 00:20:38 10° NW 00:24:58 67° WSW 00:24:58 67° WSW visible
04 Jul 8.3 23:00:42 10° NNW 23:04:51 33° NE 23:06:45 24° E visible
05 Jul 8.4 00:40:53 10° NW 00:44:02 28° W 00:44:02 28° W visible
05 Jul 9.5 21:41:51 10° N 21:43:55 13° NNE 21:45:59 10° ENE visible
05 Jul 7.2 23:20:21 10° NNW 23:24:53 67° NE 23:25:52 51° ESE visible
06 Jul 9.4 01:02:02 10° WNW 01:03:08 13° W 01:03:08 13° W visible
06 Jul 9.0 22:00:48 10° N 22:04:19 21° NE 22:07:44 10° E visible
06 Jul 7.2 23:40:17 10° NW 23:44:45 57° WSW 23:45:01 56° SW visible
07 Jul 8.0 22:20:14 10° NNW 22:24:31 38° NE 22:26:57 22° ESE visible
08 Jul 8.5 00:00:40 10° WNW 00:04:13 26° WSW 00:04:13 26° WSW visible
08 Jul 7.1 22:39:57 10° NNW 22:44:31 79° NE 22:46:11 39° SE visible
09 Jul 9.5 00:22:18 10° W 00:23:29 12° W 00:23:29 12° W visible
09 Jul 8.7 21:20:18 10° NNW 21:24:01 24° NE 21:27:43 10° E visible
09 Jul 7.6 22:59:58 10° NW 23:04:20 48° WSW 23:05:29 38° SSW visible
